timestamp,wind_dir_avg,wind_spd_avg,wind_spd_max_dir,wind_spd_gust,battery_voltage,lat,long
2021-05-21 00:04:01+00:00,215.0,7.52,214.0,8.4,12.89,47.59359,-54.27349
2021-05-21 00:14:01+00:00,207.0,8.11,208.0,9.53,12.57,47.59359,-54.27349
2021-05-21 00:24:01+00:00,211.0,7.86,209.0,8.89,12.57,47.59359,-54.27349
2021-05-21 00:34:01+00:00,210.0,7.34,208.0,8.63,12.57,47.59359,-54.27349
2021-05-21 00:44:01+00:00,206.0,7.68,201.0,8.56,12.57,47.59359,-54.27349
2021-05-21 00:54:01+00:00,204.0,7.06,207.0,8.45,12.57,47.59359,-54.27349
2021-05-21 01:04:01+00:00,207.0,8.0,209.0,8.82,12.57,47.59359,-54.27349
2021-05-21 01:14:01+00:00,213.0,7.99,213.0,8.63,12.57,47.59359,-54.27349
2021-05-21 01:24:01+00:00,209.0,7.45,209.0,8.1,12.57,47.59359,-54.27349
2021-05-21 01:34:01+00:00,202.0,7.1,201.0,7.72,12.57,47.59359,-54.27349
2021-05-21 01:44:01+00:00,201.0,6.32,202.0,7.22,12.57,47.59359,-54.27349
2021-05-21 01:54:01+00:00,199.0,6.4,201.0,7.02,12.57,47.59359,-54.27349
2021-05-21 02:04:01+00:00,201.0,6.76,204.0,7.48,12.57,47.59359,-54.27349
2021-05-21 02:14:00+00:00,204.0,6.9,205.0,7.67,12.57,47.59359,-54.27349
2021-05-21 02:24:00+00:00,210.0,7.07,218.0,8.04,12.57,47.59359,-54.27349
2021-05-21 02:34:00+00:00,209.0,7.02,209.0,7.84,12.57,47.59359,-54.27349
2021-05-21 02:44:00+00:00,210.0,7.52,215.0,8.55,12.57,47.59359,-54.27349
2021-05-21 02:54:00+00:00,213.0,7.91,213.0,8.57,12.57,47.59359,-54.27349
2021-05-21 03:04:00+00:00,214.0,7.5,215.0,8.17,12.57,47.59359,-54.27349
2021-05-21 03:14:01+00:00,219.0,6.63,216.0,7.7,12.49,47.59359,-54.27349
2021-05-21 03:24:01+00:00,214.0,6.45,212.0,6.98,12.49,47.59359,-54.27349
2021-05-21 03:34:01+00:00,224.0,6.18,230.0,6.91,12.49,47.59359,-54.27349
2021-05-21 03:44:01+00:00,220.0,5.36,220.0,6.08,12.49,47.59359,-54.27349
2021-05-21 03:54:01+00:00,230.0,5.08,233.0,5.93,12.49,47.59359,-54.27349
2021-05-21 04:04:01+00:00,230.0,4.79,227.0,5.53,12.49,47.59359,-54.27349
2021-05-21 04:14:00+00:00,229.0,5.86,232.0,6.75,12.49,47.59359,-54.27349
2021-05-21 04:24:00+00:00,235.0,5.34,235.0,5.89,12.49,47.59359,-54.27349
2021-05-21 04:34:00+00:00,238.0,5.06,236.0,5.69,12.49,47.59359,-54.27349
2021-05-21 04:44:00+00:00,228.0,5.64,222.0,6.9,12.49,47.59359,-54.27349
2021-05-21 04:54:00+00:00,227.0,5.94,235.0,6.59,12.49,47.59359,-54.27349
2021-05-21 05:04:00+00:00,231.0,6.01,233.0,7.01,12.49,47.59359,-54.27349
2021-05-21 05:14:00+00:00,228.0,5.87,227.0,6.82,12.49,47.59359,-54.27349
2021-05-21 05:24:00+00:00,214.0,4.55,220.0,4.95,12.49,47.59359,-54.27349
2021-05-21 05:34:00+00:00,226.0,4.82,232.0,6.06,12.49,47.59359,-54.27349
2021-05-21 05:44:00+00:00,227.0,5.9,227.0,6.85,12.49,47.59359,-54.27349
2021-05-21 05:54:00+00:00,227.0,5.93,219.0,7.41,12.49,47.59359,-54.27349
2021-05-21 06:04:00+00:00,234.0,6.28,236.0,7.18,12.49,47.59359,-54.27349
2021-05-21 06:14:00+00:00,229.0,5.78,227.0,6.43,12.49,47.59359,-54.27349
2021-05-21 06:24:00+00:00,230.0,6.41,232.0,8.12,12.49,47.59359,-54.27349
2021-05-21 06:34:00+00:00,227.0,5.75,229.0,6.48,12.49,47.59359,-54.27349
2021-05-21 06:44:00+00:00,232.0,6.19,226.0,7.24,12.49,47.59359,-54.27349
2021-05-21 06:54:00+00:00,229.0,6.26,233.0,7.05,12.49,47.59359,-54.27349
2021-05-21 07:04:00+00:00,222.0,6.21,226.0,7.24,12.49,47.59359,-54.27349
2021-05-21 07:14:00+00:00,227.0,6.96,228.0,8.05,12.41,47.59359,-54.27349
2021-05-21 07:24:00+00:00,228.0,5.96,225.0,6.93,12.41,47.59359,-54.27349
2021-05-21 07:34:00+00:00,224.0,6.38,224.0,6.94,12.41,47.59359,-54.27349
2021-05-21 07:44:00+00:00,215.0,5.57,216.0,6.32,12.41,47.59359,-54.27349
2021-05-21 07:54:00+00:00,211.0,4.9,209.0,5.48,12.41,47.59359,-54.27349
2021-05-21 08:04:00+00:00,216.0,5.47,219.0,6.13,12.41,47.59359,-54.27349
2021-05-21 08:14:01+00:00,221.0,6.46,226.0,8.47,12.41,47.59359,-54.27349
2021-05-21 08:24:01+00:00,226.0,5.91,235.0,6.75,12.41,47.59359,-54.27349
2021-05-21 08:34:01+00:00,225.0,5.98,223.0,6.98,12.41,47.59359,-54.27349
2021-05-21 08:44:01+00:00,229.0,6.98,227.0,8.32,12.41,47.59359,-54.27349
2021-05-21 08:54:01+00:00,233.0,6.38,233.0,7.22,12.41,47.59359,-54.27349
2021-05-21 09:04:01+00:00,231.0,6.24,229.0,7.4,12.41,47.59359,-54.27349
2021-05-21 09:14:00+00:00,221.0,6.37,223.0,6.8,12.57,47.59359,-54.27349
2021-05-21 09:24:00+00:00,222.0,6.15,222.0,6.85,12.57,47.59359,-54.27349
2021-05-21 09:34:00+00:00,221.0,6.31,217.0,7.16,12.57,47.59359,-54.27349
2021-05-21 09:44:00+00:00,222.0,5.65,221.0,6.27,12.57,47.59359,-54.27349
2021-05-21 09:54:00+00:00,214.0,6.12,216.0,6.71,12.57,47.59359,-54.27349
2021-05-21 10:04:00+00:00,209.0,5.6,213.0,6.19,12.57,47.59359,-54.27349
2021-05-21 10:14:01+00:00,212.0,6.22,214.0,6.98,13.68,47.59359,-54.27349
2021-05-21 10:24:01+00:00,218.0,6.4,217.0,7.14,13.68,47.59359,-54.27349
2021-05-21 10:34:01+00:00,215.0,5.9,218.0,6.77,13.68,47.59359,-54.27349
2021-05-21 10:44:01+00:00,213.0,7.93,215.0,8.55,13.68,47.59359,-54.27349
2021-05-21 10:54:01+00:00,213.0,8.49,213.0,9.37,13.68,47.59359,-54.27349
2021-05-21 11:04:01+00:00,211.0,7.94,209.0,9.33,13.68,47.59359,-54.27349
2021-05-21 11:14:01+00:00,206.0,8.15,208.0,9.52,13.84,47.59359,-54.27349
2021-05-21 11:24:01+00:00,200.0,7.74,197.0,8.89,13.84,47.59359,-54.27349
2021-05-21 11:34:01+00:00,211.0,7.32,212.0,8.27,13.84,47.59359,-54.27349
2021-05-21 11:44:01+00:00,206.0,8.0,205.0,8.57,13.84,47.59359,-54.27349
2021-05-21 11:54:01+00:00,205.0,8.51,211.0,9.41,13.84,47.59359,-54.27349
2021-05-21 12:04:01+00:00,210.0,8.47,209.0,9.68,13.84,47.59359,-54.27349
2021-05-21 12:14:01+00:00,211.0,8.76,211.0,9.8,13.92,47.59359,-54.27349
2021-05-21 12:24:01+00:00,212.0,9.28,214.0,10.32,13.92,47.59359,-54.27349
2021-05-21 12:34:01+00:00,210.0,9.1,211.0,10.05,13.92,47.59359,-54.27349
2021-05-21 12:44:01+00:00,210.0,8.92,211.0,9.91,13.92,47.59359,-54.27349
2021-05-21 12:54:01+00:00,207.0,9.58,208.0,10.68,13.92,47.59359,-54.27349
2021-05-21 13:04:01+00:00,208.0,9.7,210.0,10.75,13.92,47.59359,-54.27349
2021-05-21 13:14:01+00:00,208.0,10.07,208.0,11.19,14.32,47.59359,-54.27349
2021-05-21 13:24:01+00:00,203.0,9.65,204.0,10.52,14.32,47.59359,-54.27349
2021-05-21 13:34:01+00:00,202.0,10.55,201.0,11.64,14.32,47.59359,-54.27349
2021-05-21 13:44:01+00:00,201.0,10.41,206.0,11.67,14.32,47.59359,-54.27349
2021-05-21 13:54:01+00:00,205.0,10.36,204.0,11.95,14.32,47.59359,-54.27349
2021-05-21 14:04:01+00:00,207.0,11.03,206.0,11.97,14.32,47.59359,-54.27349
2021-05-21 14:14:01+00:00,205.0,11.37,208.0,12.93,14.16,47.59359,-54.27349
2021-05-21 14:24:01+00:00,207.0,11.03,207.0,12.58,14.16,47.59359,-54.27349
2021-05-21 14:34:01+00:00,206.0,11.14,205.0,12.6,14.16,47.59359,-54.27349
2021-05-21 14:44:01+00:00,209.0,11.28,207.0,12.7,14.16,47.59359,-54.27349
2021-05-21 14:54:01+00:00,205.0,11.36,202.0,12.82,14.16,47.59359,-54.27349
2021-05-21 15:04:01+00:00,210.0,10.91,209.0,12.2,14.16,47.59359,-54.27349
2021-05-21 15:14:01+00:00,208.0,11.59,204.0,12.84,14.08,47.59359,-54.27349
2021-05-21 15:24:01+00:00,207.0,12.18,208.0,13.87,14.08,47.59359,-54.27349
2021-05-21 15:34:01+00:00,206.0,12.66,205.0,14.36,14.08,47.59359,-54.27349
2021-05-21 15:44:01+00:00,211.0,13.47,210.0,15.15,14.08,47.59359,-54.27349
2021-05-21 15:54:01+00:00,209.0,12.21,206.0,13.81,14.08,47.59359,-54.27349
2021-05-21 16:04:01+00:00,210.0,12.23,208.0,13.5,14.08,47.59359,-54.27349
2021-05-21 16:14:01+00:00,211.0,11.62,213.0,12.86,14.4,47.59359,-54.27349
2021-05-21 16:24:01+00:00,208.0,11.78,210.0,13.51,14.4,47.59359,-54.27349
2021-05-21 16:34:01+00:00,207.0,12.44,212.0,13.39,14.4,47.59359,-54.27349
2021-05-21 16:44:01+00:00,203.0,10.82,199.0,13.81,14.4,47.59359,-54.27349
2021-05-21 16:54:01+00:00,197.0,9.41,195.0,11.05,14.4,47.59359,-54.27349
2021-05-21 17:04:01+00:00,202.0,11.65,204.0,13.09,14.4,47.59359,-54.27349
2021-05-21 17:14:01+00:00,206.0,11.82,204.0,13.02,14.32,47.59359,-54.27349
2021-05-21 17:24:01+00:00,206.0,11.17,209.0,12.29,14.32,47.59359,-54.27349
2021-05-21 17:34:01+00:00,201.0,10.3,208.0,11.96,14.32,47.59359,-54.27349
2021-05-21 17:44:01+00:00,206.0,11.13,209.0,12.74,14.32,47.59359,-54.27349
2021-05-21 17:54:01+00:00,208.0,11.2,213.0,12.65,14.32,47.59359,-54.27349
2021-05-21 18:04:01+00:00,209.0,11.9,203.0,13.5,14.32,47.59359,-54.27349
2021-05-21 18:14:01+00:00,211.0,11.26,213.0,12.21,13.84,47.59359,-54.27349
2021-05-21 18:24:01+00:00,213.0,11.3,213.0,12.36,13.84,47.59359,-54.27349
2021-05-21 18:34:01+00:00,211.0,11.7,206.0,12.73,13.84,47.59359,-54.27349
2021-05-21 18:44:01+00:00,215.0,10.63,217.0,11.8,13.84,47.59359,-54.27349
2021-05-21 18:54:01+00:00,218.0,11.3,218.0,12.46,13.84,47.59359,-54.27349
2021-05-21 19:04:01+00:00,214.0,11.18,215.0,12.9,13.84,47.59359,-54.27349
2021-05-21 19:14:01+00:00,211.0,12.01,206.0,15.72,13.84,47.59359,-54.27349
2021-05-21 19:24:01+00:00,213.0,11.86,209.0,13.59,13.84,47.59359,-54.27349
2021-05-21 19:34:01+00:00,212.0,11.66,209.0,13.34,13.84,47.59359,-54.27349
2021-05-21 19:44:01+00:00,212.0,11.64,214.0,12.86,13.84,47.59359,-54.27349
2021-05-21 19:54:01+00:00,206.0,12.35,207.0,13.32,13.84,47.59359,-54.27349
2021-05-21 20:04:01+00:00,204.0,11.16,203.0,12.44,13.84,47.59359,-54.27349
2021-05-21 20:14:01+00:00,204.0,11.05,200.0,12.42,13.76,47.59359,-54.27349
2021-05-21 20:24:01+00:00,209.0,11.52,210.0,12.89,13.76,47.59359,-54.27349
2021-05-21 20:34:01+00:00,207.0,11.69,207.0,13.21,13.76,47.59359,-54.27349
2021-05-21 20:44:01+00:00,207.0,10.91,208.0,12.33,13.76,47.59359,-54.27349
2021-05-21 20:54:01+00:00,206.0,11.42,208.0,13.02,13.76,47.59359,-54.27349
2021-05-21 21:04:01+00:00,213.0,11.32,215.0,12.86,13.76,47.59359,-54.27349
2021-05-21 21:14:01+00:00,210.0,11.74,209.0,13.97,13.84,47.59359,-54.27349
2021-05-21 21:24:01+00:00,211.0,11.68,210.0,13.16,13.84,47.59359,-54.27349
2021-05-21 21:34:01+00:00,208.0,12.08,211.0,13.99,13.84,47.59359,-54.27349
2021-05-21 21:44:01+00:00,206.0,12.33,212.0,13.6,13.84,47.59359,-54.27349
2021-05-21 21:54:01+00:00,204.0,11.79,208.0,13.36,13.84,47.59359,-54.27349
2021-05-21 22:04:01+00:00,204.0,11.41,209.0,13.5,13.84,47.59359,-54.27349
2021-05-21 22:14:01+00:00,206.0,11.62,205.0,12.51,13.68,47.59359,-54.27349
2021-05-21 22:24:01+00:00,207.0,11.04,202.0,12.93,13.68,47.59359,-54.27349
2021-05-21 22:34:01+00:00,206.0,11.08,201.0,13.06,13.68,47.59359,-54.27349
2021-05-21 22:44:01+00:00,206.0,10.35,204.0,11.42,13.68,47.59359,-54.27349
2021-05-21 22:54:01+00:00,204.0,10.55,202.0,11.36,13.68,47.59359,-54.27349
2021-05-21 23:04:01+00:00,204.0,10.57,208.0,11.66,13.68,47.59359,-54.27349
2021-05-21 23:14:01+00:00,204.0,10.78,204.0,11.48,13.21,47.59359,-54.27349
2021-05-21 23:24:01+00:00,206.0,10.06,205.0,11.0,13.21,47.59359,-54.27349
2021-05-21 23:34:01+00:00,203.0,10.0,205.0,10.97,13.21,47.59359,-54.27349
2021-05-21 23:44:01+00:00,204.0,9.07,205.0,9.87,13.21,47.59359,-54.27349
2021-05-21 23:54:01+00:00,203.0,9.18,201.0,10.21,13.21,47.59359,-54.27349
